When you browse on this site, cookies collect data to enhance your experience and personalize the content and advertising you see.
Visit our Privacy Policy to learn more. By continuing to use the site, you agree to this use of cookies and data.
  • In United Kingdom
  • List of Countries
  • For 7 days
  • Water Temperature
  • Weather Map
  • Weather Widgets
  • user-avatar
    Login

    Hourly Weather Pivdenne

    Today, 23 August, Friday

    Time Temperature Precipitation Wind Pressure Humidity
    00:00 +27°C° 0 mm 6 mps 758 mmHg 59%
    01:00 +27°C° 0 mm 5 mps 758 mmHg 60%
    02:00 +26°C° 0 mm 6 mps 758 mmHg 63%
    03:00 +26°C° 0 mm 5 mps 758 mmHg 64%
    04:00 +25°C° 0 mm 5 mps 758 mmHg 64%
    05:00 +25°C° 0 mm 5 mps 758 mmHg 65%
    06:00 +26°C° 0 mm 5 mps 758 mmHg 62%
    07:00 +27°C° 0 mm 5 mps 758 mmHg 59%
    08:00 +28°C° 0 mm 6 mps 759 mmHg 57%
    09:00 +30°C° 0 mm 6 mps 758 mmHg 51%
    10:00 +32°C° 0 mm 6 mps 758 mmHg 46%
    11:00 +34°C° 0 mm 6 mps 758 mmHg 41%
    12:00 +34°C° 0 mm 6 mps 758 mmHg 39%
    13:00 +35°C° 0 mm 6 mps 758 mmHg 37%
    14:00 +36°C° 0 mm 6 mps 758 mmHg 31%
    15:00 +35°C° 0 mm 6 mps 758 mmHg 33%
    16:00 +35°C° 0 mm 6 mps 758 mmHg 34%
    17:00 +34°C° 0 mm 6 mps 757 mmHg 36%
    18:00 +33°C° 0 mm 6 mps 758 mmHg 40%
    19:00 +30°C° 0 mm 5 mps 758 mmHg 45%
    20:00 +29°C° 0 mm 5 mps 758 mmHg 50%
    21:00 +28°C° 0.1 mm 5 mps 758 mmHg 54%
    22:00 +27°C° 0.1 mm 5 mps 758 mmHg 58%
    23:00 +26°C° 0.1 mm 5 mps 758 mmHg 62%

    Tomorrow, 24 August, Saturday

    Time Temperature Precipitation Wind Pressure Humidity
    00:00 +26°C° 0.5 mm 5 mps 758 mmHg 67%
    01:00 +25°C° 0.5 mm 5 mps 758 mmHg 71%
    02:00 +23°C° 0.5 mm 5 mps 759 mmHg 76%
    03:00 +23°C° 0.3 mm 5 mps 759 mmHg 78%
    04:00 +22°C° 0.3 mm 6 mps 759 mmHg 80%
    05:00 +22°C° 0.3 mm 6 mps 759 mmHg 82%
    06:00 +23°C° 0 mm 6 mps 759 mmHg 77%
    07:00 +26°C° 0 mm 6 mps 759 mmHg 71%
    08:00 +27°C° 0 mm 6 mps 759 mmHg 66%
    09:00 +29°C° 0 mm 6 mps 759 mmHg 59%
    10:00 +30°C° 0 mm 6 mps 759 mmHg 51%
    11:00 +33°C° 0 mm 6 mps 759 mmHg 44%
    12:00 +34°C° 0 mm 6 mps 759 mmHg 41%
    13:00 +35°C° 0 mm 5 mps 758 mmHg 39%
    14:00 +35°C° 0 mm 5 mps 758 mmHg 36%
    15:00 +35°C° 0 mm 5 mps 758 mmHg 37%
    16:00 +34°C° 0 mm 5 mps 758 mmHg 38%
    17:00 +34°C° 0 mm 6 mps 758 mmHg 39%
    18:00 +32°C° 0 mm 5 mps 758 mmHg 44%
    19:00 +29°C° 0 mm 4 mps 758 mmHg 49%
    20:00 +28°C° 0 mm 3 mps 759 mmHg 54%
    21:00 +27°C° 0 mm 3 mps 759 mmHg 57%
    22:00 +26°C° 0 mm 4 mps 759 mmHg 60%
    23:00 +26°C° 0 mm 4 mps 759 mmHg 62%

    Day after tomorrow, 25 August, Sunday

    Time Temperature Precipitation Wind Pressure Humidity
    00:00 +25°C° 0 mm 4 mps 759 mmHg 65%
    01:00 +25°C° 0 mm 4 mps 759 mmHg 67%
    02:00 +23°C° 0 mm 5 mps 759 mmHg 70%
    03:00 +23°C° 0 mm 5 mps 759 mmHg 73%
    04:00 +22°C° 0 mm 5 mps 759 mmHg 76%
    05:00 +21°C° 0 mm 5 mps 759 mmHg 79%
    06:00 +23°C° 0 mm 5 mps 759 mmHg 73%
    07:00 +25°C° 0 mm 5 mps 759 mmHg 68%
    08:00 +26°C° 0 mm 5 mps 760 mmHg 63%
    09:00 +28°C° 0 mm 5 mps 760 mmHg 56%
    10:00 +29°C° 0 mm 5 mps 760 mmHg 50%
    11:00 +30°C° 0 mm 5 mps 760 mmHg 43%
    12:00 +32°C° 0 mm 5 mps 759 mmHg 39%
    13:00 +33°C° 0 mm 5 mps 759 mmHg 34%
    14:00 +33°C° 0 mm 5 mps 759 mmHg 30%
    15:00 +33°C° 0 mm 5 mps 759 mmHg 29%
    16:00 +32°C° 0 mm 5 mps 759 mmHg 28%
    17:00 +32°C° 0 mm 5 mps 759 mmHg 27%
    18:00 +29°C° 0 mm 5 mps 759 mmHg 31%
    19:00 +27°C° 0 mm 5 mps 759 mmHg 35%
    20:00 +25°C° 0 mm 5 mps 760 mmHg 38%
    21:00 +25°C° 0 mm 5 mps 760 mmHg 41%
    22:00 +23°C° 0 mm 5 mps 760 mmHg 44%
    23:00 +22°C° 0 mm 5 mps 760 mmHg 46%

    26 August, Monday

    Time Temperature Precipitation Wind Pressure Humidity
    00:00 +21°C° 0 mm 5 mps 760 mmHg 50%
    01:00 +21°C° 0 mm 5 mps 760 mmHg 54%
    02:00 +20°C° 0 mm 5 mps 760 mmHg 58%
    03:00 +20°C° 0 mm 5 mps 760 mmHg 62%
    04:00 +19°C° 0 mm 5 mps 760 mmHg 66%
    05:00 +19°C° 0 mm 5 mps 760 mmHg 70%
    06:00 +21°C° 0 mm 5 mps 761 mmHg 65%
    07:00 +22°C° 0 mm 6 mps 761 mmHg 60%
    08:00 +24°C° 0 mm 6 mps 761 mmHg 56%
    09:00 +26°C° 0 mm 6 mps 761 mmHg 51%
    10:00 +27°C° 0 mm 6 mps 761 mmHg 46%
    11:00 +29°C° 0 mm 6 mps 761 mmHg 42%
    12:00 +29°C° 0 mm 6 mps 761 mmHg 40%
    13:00 +30°C° 0 mm 6 mps 760 mmHg 38%
    14:00 +30°C° 0 mm 6 mps 760 mmHg 36%
    15:00 +30°C° 0 mm 6 mps 760 mmHg 36%
    16:00 +29°C° 0 mm 6 mps 760 mmHg 36%
    17:00 +29°C° 0 mm 6 mps 759 mmHg 37%
    18:00 +27°C° 0 mm 5 mps 760 mmHg 39%
    19:00 +26°C° 0 mm 5 mps 760 mmHg 42%
    20:00 +23°C° 0 mm 5 mps 760 mmHg 44%
    21:00 +22°C° 0 mm 5 mps 760 mmHg 46%
    22:00 +22°C° 0 mm 5 mps 760 mmHg 48%
    23:00 +21°C° 0 mm 5 mps 760 mmHg 50%

    27 August, Tuesday

    Time Temperature Precipitation Wind Pressure Humidity
    00:00 +20°C° 0 mm 5 mps 760 mmHg 52%
    01:00 +19°C° 0 mm 5 mps 760 mmHg 55%
    02:00 +19°C° 0 mm 5 mps 760 mmHg 57%
    03:00 +18°C° 0 mm 4 mps 760 mmHg 58%
    04:00 +18°C° 0 mm 4 mps 760 mmHg 60%
    05:00 +17°C° 0 mm 4 mps 760 mmHg 61%
    06:00 +19°C° 0 mm 5 mps 760 mmHg 56%
    07:00 +21°C° 0 mm 5 mps 760 mmHg 51%
    08:00 +22°C° 0 mm 5 mps 760 mmHg 46%
    09:00 +25°C° 0 mm 5 mps 759 mmHg 41%
    10:00 +27°C° 0 mm 5 mps 759 mmHg 35%
    11:00 +28°C° 0 mm 5 mps 759 mmHg 29%
    12:00 +29°C° 0 mm 5 mps 759 mmHg 28%
    13:00 +29°C° 0 mm 5 mps 758 mmHg 26%
    14:00 +30°C° 0 mm 5 mps 758 mmHg 24%
    15:00 +30°C° 0 mm 5 mps 758 mmHg 25%
    16:00 +30°C° 0 mm 4 mps 758 mmHg 25%
    17:00 +29°C° 0 mm 4 mps 758 mmHg 26%
    18:00 +27°C° 0 mm 4 mps 758 mmHg 30%
    19:00 +26°C° 0 mm 4 mps 758 mmHg 33%
    20:00 +23°C° 0 mm 4 mps 758 mmHg 36%
    21:00 +22°C° 0 mm 4 mps 758 mmHg 40%
    22:00 +21°C° 0 mm 4 mps 758 mmHg 43%
    23:00 +20°C° 0 mm 4 mps 758 mmHg 46%

    28 August, Wednesday

    Time Temperature Precipitation Wind Pressure Humidity
    00:00 +20°C° 0 mm 3 mps 758 mmHg 50%
    01:00 +20°C° 0 mm 3 mps 758 mmHg 54%
    02:00 +19°C° 0 mm 3 mps 758 mmHg 58%
    03:00 +19°C° 0 mm 3 mps 758 mmHg 61%
    04:00 +19°C° 0 mm 3 mps 758 mmHg 65%
    05:00 +19°C° 0 mm 3 mps 758 mmHg 68%
    06:00 +20°C° 0 mm 3 mps 758 mmHg 65%
    07:00 +22°C° 0 mm 3 mps 759 mmHg 61%
    08:00 +25°C° 0 mm 3 mps 759 mmHg 57%
    09:00 +26°C° 0 mm 4 mps 758 mmHg 52%
    10:00 +27°C° 0 mm 4 mps 758 mmHg 46%
    11:00 +28°C° 0 mm 4 mps 758 mmHg 40%
    12:00 +29°C° 0 mm 4 mps 758 mmHg 38%
    13:00 +29°C° 0 mm 4 mps 758 mmHg 36%
    14:00 +30°C° 0 mm 4 mps 757 mmHg 34%
    15:00 +29°C° 0 mm 4 mps 757 mmHg 35%
    16:00 +29°C° 0 mm 4 mps 757 mmHg 35%
    17:00 +28°C° 0 mm 4 mps 757 mmHg 35%
    18:00 +27°C° 0 mm 4 mps 757 mmHg 38%
    19:00 +25°C° 0 mm 5 mps 758 mmHg 40%
    20:00 +22°C° 0 mm 5 mps 758 mmHg 42%
    21:00 +21°C° 0 mm 5 mps 758 mmHg 41%
    22:00 +20°C° 0 mm 5 mps 758 mmHg 40%
    23:00 +19°C° 0 mm 6 mps 759 mmHg 39%
    Show more